Location: ??????
(41.3164°N, 22.6615°E)
Time: 17:48:39
(UTC+00:00)

Cosmos 1300 - Pass Details

Date: 06 June 2022
Orbit: 506 x 508 km, 82.5° (Epoch: 01 July)

Event Time Altitude Azimuth Distance (km) Brightness Sun altitude
Rises 23:03:19 0° 331° (NNW) 2,617 7.1 -25.4°
Reaches altitude 10° 23:06:16 10° 306° (NW) 1,725 5.6 -25.3°
Enters shadow 23:07:11 13° 293° (WNW) 1,560 5.2 -25.3°
